Location: Newark
(7.0858°N, 171.3717°E)
Time: 13:08:04
(UTC+00:00)

Vanguard 1 Rocket - Pass Details

Date: 30 November 2020
Orbit: 655 x 4222 km, 34.3° (Epoch: 23 January)

Event Time Altitude Azimuth Distance (km) Brightness Sun altitude
Rises 12:45:49 0° 255° (WSW) 7,351 12.0 -74.4°
Reaches altitude 10° 12:50:33 10° 260° (W) 6,682 11.7 -73.9°
Enters shadow 12:50:47 11° 260° (W) 6,651 11.7 -73.9°
Exits shadow 13:33:35 17° 38° (NE) 6,061 11.4 -67.6°
Drops below altitude 10° 13:36:46 10° 43° (NE) 6,455 11.7 -67.0°
Sets 13:41:22 0° 49° (NE) 7,091 12.0 -66.1°
